Preview of NWS' New Version of Forecast
This preview is not operational and should not be used for support decisions.

Regional Weather Roundup (RWR)

Issued by National Weather Service (NWS)

                            
000
ASUS43 KBIS 200702
RWRND 

NORTH DAKOTA REGIONAL WEATHER ROUNDUP
NATIONAL WEATHER SERVICE BISMARCK ND
200 AM CDT THU JUN 20 2019

NOTE: "FAIR" INDICATES FEW OR NO CLOUDS BELOW 12,000 FEET WITH NO
SIGNIFICANT WEATHER AND/OR OBSTRUCTIONS TO VISIBILITY.


NDZ001>003-009>011-017-200800-
NORTHWEST NORTH DAKOTA
  
CITY           SKY/WX    TMP DP  RH WIND       PRES   REMARKS
WILLISTON      CLOUDY    60  53  77 SE9       29.68R                  
MINOT          CLOUDY    58  51  78 E5        29.71S                  
MINOT AFB      MOCLDY    53  49  87 CALM      29.70S                  
$$
 
NDZ018>021-031>035-040>046-200800-
SOUTHWEST NORTH DAKOTA
  
CITY           SKY/WX    TMP DP  RH WIND       PRES   REMARKS
BISMARCK       CLOUDY    57  54  89 E8        29.70F                  
DICKINSON      LGT RAIN  56  55  97 SE7       29.67F FOG              
GARRISON         N/A     56  52  86 SE8       29.71R                  
HETTINGER ARPT HVY RAIN  53  51  93 NE14      29.66F FOG              
$$
 
NDZ004>008-012>016-024-026-027-054-200800-
NORTHEAST NORTH DAKOTA
  
CITY           SKY/WX    TMP DP  RH WIND       PRES   REMARKS
GRAND FORKS    CLOUDY    61  54  77 E3        29.75F                  
GRND FRKS AFB  CLOUDY    60  56  86 CALM      29.76F                  
DEVILS LAKE    CLOUDY    60  51  72 E7        29.76F                  
$$
 
NDZ022-023-025-028>030-036>039-047>053-200800-
SOUTHEAST NORTH DAKOTA
  
CITY           SKY/WX    TMP DP  RH WIND       PRES   REMARKS
FARGO          LGT RAIN  59  56  89 N5        29.75F                  
JAMESTOWN      LGT RAIN  57  54  89 E10       29.72F                  
$$